S56BOT-3 Weather Reports


Display with metric or nautical units.
time (UTC)temp
F
wind
direction
speed
MPH
gust
MPH
rain 1hr
in
rain 24hr
in
rain mn
in
humidity
%
barometer
mb
20260906044608 61 129 3.0 7.0 0.00 0.00 0.00 79 1023.2
20260906043055 62 162 4.0 10.0 0.00 0.00 0.00 78 1023.1
20260906041554 61 155 7.0 10.0 0.00 0.00 0.00 78 1023.1
20260906040137 61 117 4.0 5.0 0.00 0.00 0.00 80 1023.0
20260906034605 62 162 3.0 4.0 0.00 0.00 0.00 78 1022.9
20260906033105 62 117 4.0 4.0 0.00 0.00 0.00 77 1022.9
20260906031553 63 127 3.0 9.0 0.00 0.00 0.00 76 1022.9
20260906024610 64 157 4.0 11.0 0.00 0.00 0.00 74 1022.7
20260906023103 63 5.0 9.0 0.00 0.00 0.00 76 1022.8
20260906021606 64 2.0 3.0 0.00 0.00 0.00 75 1022.6
20260906014557 63 4.0 8.0 0.00 0.00 0.00 76 1022.5
20260906013048 62 2.0 6.0 0.00 0.00 0.00 78 1022.6
20260906011558 62 67 2.0 6.0 0.00 0.00 0.00 79 1022.5
20260906010058 62 124 2.0 3.0 0.00 0.00 0.00 80 1022.3
20260906004607 62 90 3.0 11.0 0.00 0.00 0.00 80 1022.3
20260906003100 63 119 1.0 6.0 0.00 0.00 0.00 78 1022.4
20260906001607 62 3.0 7.0 0.00 0.00 0.00 81 1022.3
20260906000056 62 187 2.0 7.0 0.00 0.00 0.00 81 1022.3
20260905234551 64 161 4.0 6.0 0.00 0.00 0.00 78 1022.2
20260905233101 63 5.0 7.0 0.00 0.00 0.00 80 1022.2
20260905231557 0 0.0 0.0 0.00 0.00 0.00 1022.3
20260905230059 0 113 3.0 4.0 0.00 0.00 0.00 1022.3
20260905224615 0 0.0 0.0 0.00 0.00 0.00 1022.1
20260905223105 0 0.0 0.0 0.00 0.00 0.00 1022.1
20260905221555 0 0.0 0.0 0.00 0.00 0.00 1022.0
20260905220057 0 0.0 0.0 0.00 0.00 0.00 1022.1
20260905214603 0 7.0 0.0 0.00 0.00 0.00 1022.0
20260905213102 66 157 4.0 6.0 0.00 0.00 0.00 78 1021.9
20260905211558 67 173 5.0 7.0 0.00 0.00 0.00 75 1021.8
20260905210101 0 4.0 4.0 0.00 0.00 0.00 1021.8
20260905204558 0 0.0 0.0 0.00 0.00 0.00 1021.5
20260905203059 66 167 4.0 6.0 0.00 0.00 0.00 80 1021.4
20260905201555 66 168 1.0 5.0 0.00 0.00 0.00 82 1021.5
20260905200105 66 153 3.0 7.0 0.00 0.00 0.00 81 1021.2
20260905194552 68 162 2.0 5.0 0.00 0.00 0.00 78 1021.1
20260905193100 68 102 2.0 5.0 0.00 0.00 0.00 78 1020.9
20260905191600 68 140 2.0 4.0 0.00 0.00 0.00 78 1020.9
20260905184607 68 190 2.0 3.0 0.00 0.00 0.00 77 1020.7
20260905183101 69 90 0.0 3.0 0.00 0.00 0.00 76 1020.4
20260905181608 70 105 1.0 6.0 0.00 0.00 0.00 75 1020.3
20260905180108 71 80 5.0 10.0 0.00 0.00 0.00 73 1020.1
20260905174606 72 99 5.0 8.0 0.00 0.00 0.00 71 1020.1
20260905173131 72 174 3.0 4.0 0.00 0.00 0.00 70 1019.8
20260905171549 73 227 1.0 7.0 0.00 0.00 0.00 69 1019.7
20260905170115 74 37 10.0 19.0 0.00 0.00 0.00 68 1019.4
20260905164605 76 44 12.0 22.0 0.00 0.00 0.00 65 1019.3
20260905163117 81 57 4.0 8.0 0.00 0.00 0.00 63 1019.1
20260905161609 83 303 5.0 8.0 0.00 0.00 0.00 55 1018.6
20260905160059 0 0.0 0.0 0.00 0.00 0.00 1018.2
20260905154611 0 0.0 0.0 0.00 0.00 0.00 1018.3
20260905153058 85 7.0 10.0 0.00 0.00 0.00 53 1018.1
20260905151606 0 0.0 0.0 0.00 0.00 0.00 1018.1
20260905144602 83 4.0 4.0 0.00 0.00 0.00 58 1018.1
20260905143100 83 263 5.0 11.0 0.00 0.00 0.00 59 1018.3
20260905141606 83 265 8.0 16.0 0.00 0.00 0.00 58 1018.3
20260905140104 84 299 7.0 11.0 0.00 0.00 0.00 54 1018.3
20260905134557 84 261 7.0 12.0 0.00 0.00 0.00 54 1018.2
20260905133106 83 277 9.0 12.0 0.00 0.00 0.00 55 1018.2
20260905131603 83 286 10.0 15.0 0.00 0.00 0.00 53 1018.3
20260905130056 84 261 9.0 13.0 0.00 0.00 0.00 53 1018.2
20260905124554 85 277 5.0 13.0 0.00 0.00 0.00 51 1018.4
20260905123110 85 7.0 10.0 0.00 0.00 0.00 46 1018.4
20260905121558 85 184 9.0 15.0 0.00 0.00 0.00 45 1018.4
20260905120100 84 242 10.0 13.0 0.00 0.00 0.00 47 1018.4
20260905114559 83 155 4.0 9.0 0.00 0.00 0.00 50 1018.6
20260905113054 84 215 11.0 16.0 0.00 0.00 0.00 49 1018.7
20260905111555 83 284 3.0 7.0 0.00 0.00 0.00 50 1018.6
20260905110055 83 258 7.0 15.0 0.00 0.00 0.00 48 1018.6
20260905104552 84 105 5.0 9.0 0.00 0.00 0.00 45 1018.7
20260905103104 84 211 5.0 6.0 0.00 0.00 0.00 45 1018.7
20260905101602 84 301 1.0 4.0 0.00 0.00 0.00 45 1018.9
20260905100121 84 130 3.0 7.0 0.00 0.00 0.00 43 1018.8
20260905094553 83 317 2.0 4.0 0.00 0.00 0.00 44 1018.9
20260905093055 82 296 2.0 6.0 0.00 0.00 0.00 44 1019.0
20260905091601 82 300 1.0 3.0 0.00 0.00 0.00 43 1019.1
20260905090100 81 59 3.0 7.0 0.00 0.00 0.00 46 1018.8
20260905084559 80 75 7.0 10.0 0.00 0.00 0.00 46 1018.7
20260905083108 78 64 8.0 12.0 0.00 0.00 0.00 50 1018.4
20260905081553 77 103 7.0 11.0 0.00 0.00 0.00 51 1018.2
20260905080104 77 103 10.0 12.0 0.00 0.00 0.00 52 1018.1
20260905074558 76 113 8.0 13.0 0.00 0.00 0.00 53 1018.1
20260905073100 75 100 6.0 11.0 0.00 0.00 0.00 55 1018.1
20260905071556 75 121 5.0 7.0 0.00 0.00 0.00 53 1018.2
20260905064617 70 91 2.0 4.0 0.00 0.00 0.00 65 1017.7
20260905063056 67 121 1.0 3.0 0.00 0.00 0.00 69 1017.8
20260905061603 66 143 0.0 3.0 0.00 0.00 0.00 72 1018.0
20260905060108 63 103 2.0 3.0 0.00 0.00 0.00 73 1018.2
20260905054709 61 115 2.0 2.0 0.00 0.00 0.00 72 1018.4
20260905053059 59 97 2.0 4.0 0.00 0.00 0.00 75 1018.2
20260905051600 59 96 1.0 2.0 0.00 0.00 0.00 75 1018.1
20260905050059 56 69 2.0 4.0 0.00 0.00 0.00 79 1018.1